Home > Weather > Providence > Past weeks

Flag for USA Past Weather in Providence, Rhode Island, USA — Yesterday and Last 2 Weeks

Now
87 °F

Thundershowers. Scattered clouds.


Feels Like: 86 °F
Forecast: 69 / 90 °F
Wind: 8 mph from West

Location: Green State Airport

Current Time: Jul 23, 2016 at 9:04:40 PM

Latest Report: Jul 23, 2016 at 7:51 PM


Visibility: 10 mi

Pressure: 29.76 "Hg

Humidity: 39%

Dew Point: 59 °F

Location of ProvidenceLocation

Past Weather in Providence — Graph

°F

Providence Temperature Yesterday

Maximum temperature yesterday: 92 °F (at 12:51 PM)
Minimum temperature yesterday: 70 °F (at 4:51 AM)
Average temperature yesterday: 81 °F

High & Low Weather Summary for the Past Weeks

 TemperatureHumidityPressure
High93 °F (Jul 23, 3:51 PM)97% (Jul 15, 2:58 AM)30.22 "Hg (Jul 15, 2:58 AM)
Low59 °F (Jul 11, 2:51 AM)28% (Jul 19, 4:51 PM)29.73 "Hg (Jul 23, 4:51 PM)
Average75 °F68%29.98 "Hg
* Reported Jul 8 7:51 PM — Jul 23 7:51 PM, Providence, Weather by CustomWeather, © 2016

Note: Actual official high and low records may vary slightly from our data, if they occured in-between our weather recording intervals... More about our weather records

Advertising

Providence Weather History for the Previous 24 Hours

Scroll right to see more
 ConditionsComfort  
Time TempWeatherWind HumidityBarometerVisibility
7:51 PM
Sat, Jul 23
87 °FThundershowers. Scattered clouds.8 mph39%29.76 "Hg10 mi
6:51 PM91 °FSunny.13 mph33%29.74 "Hg10 mi
5:51 PM93 °FPassing clouds.14 mph29%29.74 "Hg10 mi
4:51 PM93 °FScattered clouds.15 mph30%29.73 "Hg10 mi
3:51 PM93 °FScattered clouds.13 mph33%29.74 "Hg10 mi
2:51 PM92 °FScattered clouds.15 mph37%29.75 "Hg10 mi
1:51 PM91 °FScattered clouds.15 mph39%29.76 "Hg10 mi
12:51 PM90 °FScattered clouds.12 mph41%29.77 "Hg10 mi
11:51 AM88 °FPassing clouds.13 mph45%29.77 "Hg10 mi
10:51 AM86 °FSunny.12 mph51%29.77 "Hg10 mi
9:51 AM84 °FSunny.10 mph59%29.76 "Hg10 mi
8:51 AM81 °FSunny.12 mph65%29.78 "Hg10 mi
7:51 AM78 °FSunny.7 mph79%29.77 "Hg10 mi
6:51 AM74 °FSunny.7 mph88%29.77 "Hg7 mi
5:51 AM70 °FFog.3 mph97%29.76 "Hg4 mi
5:04 AM70 °FFog.5 mph97%29.76 "Hg1 mi
3:51 AM71 °FFog.3 mph96%29.76 "Hg5 mi
2:51 AM72 °FFog.5 mph91%29.77 "Hg6 mi
1:51 AM73 °FPartly cloudy.8 mph90%29.78 "Hg10 mi
12:59 AM73 °FThunderstorms. Fog.22 mph88%29.80 "Hg2 mi
12:51 AM72 °FStrong thunderstorms. Fog.12 mph87%29.79 "Hg4 mi
12:01 AM71 °FThundershowers. Overcast.13 mph87%29.79 "Hg10 mi
11:51 PM
Fri, Jul 22
71 °FThunderstorms. Overcast.13 mph87%29.79 "Hg10 mi
10:51 PM75 °FThunderstorms. Overcast.16 mph85%29.78 "Hg7 mi
9:51 PM77 °FLight rain. Overcast.10 mph79%29.78 "Hg8 mi
Weather by CustomWeather, © 2016

See weather overviewHow to use our weather pages